Dew Point Data


Current

Temp 53.0 F. Dew Point 53.1 F.


Dew Point Comfort Scale

dewpoints

Date, Time Temperature Dew Point
Sun Mar 24 01:08:05 2019 50.0 F. 37.0 F.
Sun Mar 24 02:08:05 2019 48.0 F. 41.0 F.
Sun Mar 24 03:08:05 2019 50.0 F. 39.9 F.
Sun Mar 24 04:08:05 2019 49.0 F. 39.0 F.
Sun Mar 24 05:08:05 2019 49.0 F. 39.0 F.
Sun Mar 24 06:08:05 2019 49.0 F. 37.9 F.
Sun Mar 24 07:08:05 2019 47.0 F. 41.0 F.
Sun Mar 24 08:08:06 2019 46.0 F. 43.0 F.
Sun Mar 24 09:08:05 2019 47.0 F. 42.1 F.
Sun Mar 24 10:08:05 2019 48.0 F. 42.1 F.
Sun Mar 24 11:08:05 2019 52.0 F. 45.0 F.
Sun Mar 24 12:08:05 2019 59.0 F. 50.0 F.
Sun Mar 24 13:08:19 2019 60.0 F. 52.0 F.
Sun Mar 24 14:08:59 2019
Sun Mar 24 15:09:00 2019
Sun Mar 24 16:09:00 2019
Sun Mar 24 17:08:48 2019 66.0 F. 54.0 F.
Sun Mar 24 18:08:06 2019 65.0 F. 54.0 F.
Sun Mar 24 19:08:05 2019 64.0 F. 54.0 F.
Sun Mar 24 20:08:05 2019 64.0 F. 55.0 F.
Sun Mar 24 21:08:05 2019 63.0 F. 55.9 F.
Sun Mar 24 22:08:05 2019 60.0 F. 55.0 F.
Sun Mar 24 23:08:06 2019 60.0 F. 57.0 F.
Mon Mar 25 00:08:05 2019 59.0 F. 57.0 F.
Mon Mar 25 01:08:05 2019 58.0 F. 55.0 F.
Mon Mar 25 02:08:04 2019 53.0 F. 53.1 F.